This is the latest recevied weather packets stored in our database for station/object N5PA. If no packets are shown the sender has not sent any weather packets the latest 10 day(s).
| Time | Temp. | Humidity | Pressure | Rain* | Wind** | Luminosity | Snow |
|---|---|---|---|---|---|---|---|
| 1778137807 | 21.67° C | 20% | 1011 hPa | 0.51 mm | - | 1000 W/m² | - |
| 1778137506 | 21.67° C | 20% | 1011.2 hPa | 0.25 mm | - | 1000 W/m² | - |
| 1778137207 | 21.67° C | 20% | 1011.3 hPa | 0.25 mm | - | 1000 W/m² | - |
| 1778136906 | 21.67° C | 20% | 1011.1 hPa | 0.25 mm | - | 998 W/m² | - |
| 1778136606 | 21.67° C | 21% | 1010.9 hPa | 0 mm | - | 998 W/m² | - |
| 1778136307 | 21.67° C | 21% | 1010.5 hPa | 0 mm | - | 998 W/m² | - |
| 1778136006 | 21.67° C | 21% | 1010.4 hPa | 0 mm | - | 998 W/m² | - |
| 1778135707 | 21.67° C | 21% | 1010.6 hPa | 0 mm | - | 1000 W/m² | - |
| 1778135407 | 21.67° C | 21% | 1010.7 hPa | 0 mm | - | 1000 W/m² | - |
| 1778135107 | 21.67° C | 22% | 1010.3 hPa | 0 mm | - | 1000 W/m² | - |
| 1778134807 | 21.67° C | 22% | 1010.9 hPa | 0 mm | - | 1000 W/m² | - |
| 1778134507 | 21.67° C | 22% | 1010.7 hPa | 0 mm | - | 1000 W/m² | - |
| 1778134207 | 21.67° C | 23% | 1010.8 hPa | 0.25 mm | - | 1000 W/m² | - |
| 1778133907 | 21.67° C | 23% | 1011 hPa | 1.02 mm | - | 1000 W/m² | - |
| 1778133605 | 21.67° C | 23% | 1010.9 hPa | 1.78 mm | - | 998 W/m² | - |
| 1778133306 | 21.67° C | 24% | 1010.7 hPa | 2.03 mm | - | 997 W/m² | - |
| 1778133006 | 21.67° C | 24% | 1010.7 hPa | 2.03 mm | - | 997 W/m² | - |
| 1778132706 | 21.67° C | 24% | 1010.7 hPa | 2.03 mm | - | 997 W/m² | - |
| 1778132406 | 21.67° C | 24% | 1010.6 hPa | 2.29 mm | - | 997 W/m² | - |
| 1778132107 | 21.67° C | 24% | 1010.5 hPa | 2.29 mm | - | 997 W/m² | - |
| 1778131807 | 21.67° C | 25% | 1010.3 hPa | 2.29 mm | - | 997 W/m² | - |
| 1778131507 | 21.67° C | 25% | 1010.5 hPa | 2.29 mm | - | 997 W/m² | - |
| 1778131206 | 21.67° C | 26% | 1010.5 hPa | 2.54 mm | - | 997 W/m² | - |
| 1778130905 | 21.67° C | 26% | 1010.3 hPa | 2.54 mm | - | 997 W/m² | - |
| 1778130605 | 21.67° C | 26% | 1009.9 hPa | 2.29 mm | - | 997 W/m² | - |
* Rain latest hour (hover to see other rain measurements)
** Current wind speed in m/s (hover to see current wind gust speed)